Time,TemperatureF,DewpointF,PressureIn,WindDirection,WindDirectionDegrees,WindSpeedMPH,WindSpeedGustMPH,Humidity,HourlyPrecipIn,Conditions,Clouds,dailyrainin,SoftwareType,DateUTC
2013-01-17 00:00:00,30.4,9.5,29.49,West,268,0.0,0.0,41,0.00,,---,0.00,VWS V14.01,2013-01-17 05:00:00,
2013-01-17 00:02:00,30.4,9.5,29.49,West,268,0.0,0.0,41,0.00,,---,0.00,VWS V14.01,2013-01-17 05:02:00,
2013-01-17 00:03:00,30.4,9.5,29.49,West,268,0.0,0.0,41,0.00,,---,0.00,VWS V14.01,2013-01-17 05:03:00,
2013-01-17 00:08:00,30.2,9.9,29.49,West,268,0.0,0.0,42,0.00,,---,0.00,VWS V14.01,2013-01-17 05:08:00,
2013-01-17 00:13:00,30.2,9.9,29.49,West,268,0.0,0.0,42,0.00,,---,0.00,VWS V14.01,2013-01-17 05:13:00,
2013-01-17 00:18:00,30.2,9.9,29.49,West,268,0.0,0.0,42,0.00,,---,0.00,VWS V14.01,2013-01-17 05:18:00,
2013-01-17 00:23:00,30.2,9.9,29.49,West,268,0.0,0.0,42,0.00,,---,0.00,VWS V14.01,2013-01-17 05:23:00,
2013-01-17 00:28:00,30.2,9.9,29.49,West,268,0.0,0.0,42,0.00,,---,0.00,VWS V14.01,2013-01-17 05:28:00,
2013-01-17 00:33:00,30.2,9.9,29.49,West,268,0.0,0.0,42,0.00,,---,0.00,VWS V14.01,2013-01-17 05:33:00,
2013-01-17 00:38:00,30.2,9.9,29.49,West,268,0.0,0.0,42,0.00,,---,0.00,VWS V14.01,2013-01-17 05:38:00,
2013-01-17 00:43:00,30.0,9.7,29.49,West,268,0.0,0.0,42,0.00,,---,0.00,VWS V14.01,2013-01-17 05:43:00,
2013-01-17 00:48:00,30.0,9.7,29.49,West,268,0.0,0.0,42,0.00,,---,0.00,VWS V14.01,2013-01-17 05:48:00,
2013-01-17 00:53:00,30.0,9.7,29.49,West,268,0.0,0.0,42,0.00,,---,0.00,VWS V14.01,2013-01-17 05:53:00,
2013-01-17 00:58:00,30.0,9.7,29.49,West,268,0.0,0.0,42,0.00,,---,0.00,VWS V14.01,2013-01-17 05:58:00,
2013-01-17 01:03:00,30.0,9.7,29.49,West,268,0.0,0.0,42,0.00,,---,0.00,VWS V14.01,2013-01-17 06:03:00,
2013-01-17 01:08:00,30.0,9.7,29.49,West,268,0.0,0.0,42,0.00,,---,0.00,VWS V14.01,2013-01-17 06:08:00,
2013-01-17 01:13:00,30.0,9.7,29.49,West,268,0.0,0.0,42,0.00,,---,0.00,VWS V14.01,2013-01-17 06:13:00,
2013-01-17 01:18:00,30.0,9.7,29.49,West,268,0.0,0.0,42,0.00,,---,0.00,VWS V14.01,2013-01-17 06:18:00,
2013-01-17 01:23:00,30.0,9.7,29.49,West,268,0.0,0.0,42,0.00,,---,0.00,VWS V14.01,2013-01-17 06:23:00,
2013-01-17 01:28:00,30.0,9.7,29.49,West,268,0.0,0.0,42,0.00,,---,0.00,VWS V14.01,2013-01-17 06:28:00,
2013-01-17 01:33:00,30.0,9.7,29.49,West,268,0.0,0.0,42,0.00,,---,0.00,VWS V14.01,2013-01-17 06:33:00,
2013-01-17 01:38:00,30.0,9.7,29.49,West,268,0.0,0.0,42,0.00,,---,0.00,VWS V14.01,2013-01-17 06:38:00,
2013-01-17 01:43:00,30.0,9.7,29.49,West,268,0.0,0.0,42,0.00,,---,0.00,VWS V14.01,2013-01-17 06:43:00,
2013-01-17 01:48:00,29.8,9.6,29.49,West,268,0.0,0.0,42,0.00,,---,0.00,VWS V14.01,2013-01-17 06:48:00,
2013-01-17 01:53:00,30.0,9.7,29.49,West,268,0.0,0.0,42,0.00,,---,0.00,VWS V14.01,2013-01-17 06:53:00,
2013-01-17 01:58:00,29.8,9.6,29.49,West,268,0.0,0.0,42,0.00,,---,0.00,VWS V14.01,2013-01-17 06:58:00,
2013-01-17 02:03:00,30.0,9.7,29.49,West,268,0.0,0.0,42,0.00,,---,0.00,VWS V14.01,2013-01-17 07:03:00,
2013-01-17 02:08:00,29.8,9.6,29.49,West,268,0.0,0.0,42,0.00,,---,0.00,VWS V14.01,2013-01-17 07:08:00,
2013-01-17 02:13:00,29.8,9.0,29.49,West,268,0.0,0.0,41,0.00,,---,0.00,VWS V14.01,2013-01-17 07:13:00,
2013-01-17 02:18:00,29.8,9.0,29.49,West,268,0.0,0.0,41,0.00,,---,0.00,VWS V14.01,2013-01-17 07:18:00,
2013-01-17 02:23:00,29.8,9.0,29.49,West,268,0.0,0.0,41,0.00,,---,0.00,VWS V14.01,2013-01-17 07:23:00,
2013-01-17 02:28:00,29.8,9.0,29.52,West,268,0.0,0.0,41,0.00,,---,0.00,VWS V14.01,2013-01-17 07:28:00,
2013-01-17 02:33:00,29.8,9.0,29.52,West,268,0.0,0.0,41,0.00,,---,0.00,VWS V14.01,2013-01-17 07:33:00,
2013-01-17 02:38:00,29.8,9.0,29.52,West,268,0.0,0.0,41,0.00,,---,0.00,VWS V14.01,2013-01-17 07:38:00,
2013-01-17 02:43:00,29.7,8.9,29.49,West,268,0.0,0.0,41,0.00,,---,0.00,VWS V14.01,2013-01-17 07:43:00,
2013-01-17 02:48:00,29.7,8.9,29.49,West,268,0.0,0.0,41,0.00,,---,0.00,VWS V14.01,2013-01-17 07:48:00,
2013-01-17 02:53:00,29.7,8.9,29.49,West,268,0.0,0.0,41,0.00,,---,0.00,VWS V14.01,2013-01-17 07:53:00,
2013-01-17 02:58:00,29.7,8.9,29.49,West,268,0.0,0.0,41,0.00,,---,0.00,VWS V14.01,2013-01-17 07:58:00,
2013-01-17 03:03:00,29.7,8.9,29.49,West,268,0.0,0.0,41,0.00,,---,0.00,VWS V14.01,2013-01-17 08:03:00,
2013-01-17 03:08:00,29.7,8.9,29.49,West,268,0.0,0.0,41,0.00,,---,0.00,VWS V14.01,2013-01-17 08:08:00,
2013-01-17 03:13:00,29.7,8.9,29.49,West,268,0.0,0.0,41,0.00,,---,0.00,VWS V14.01,2013-01-17 08:13:00,
2013-01-17 03:18:00,29.5,8.7,29.49,West,268,0.0,0.0,41,0.00,,---,0.00,VWS V14.01,2013-01-17 08:18:00,
2013-01-17 03:23:00,29.5,8.7,29.49,West,266,0.0,0.0,41,0.00,,---,0.00,VWS V14.01,2013-01-17 08:23:00,
2013-01-17 03:28:00,29.5,8.7,29.49,West,268,0.0,0.0,41,0.00,,---,0.00,VWS V14.01,2013-01-17 08:28:00,
2013-01-17 03:33:00,29.5,8.7,29.49,West,268,0.0,0.0,41,0.00,,---,0.00,VWS V14.01,2013-01-17 08:33:00,
2013-01-17 03:38:00,29.5,8.7,29.49,West,268,0.0,0.0,41,0.00,,---,0.00,VWS V14.01,2013-01-17 08:38:00,
2013-01-17 03:43:00,29.5,8.7,29.49,West,268,0.0,0.0,41,0.00,,---,0.00,VWS V14.01,2013-01-17 08:43:00,
2013-01-17 03:48:00,29.3,8.5,29.49,West,268,0.0,0.0,41,0.00,,---,0.00,VWS V14.01,2013-01-17 08:48:00,
2013-01-17 03:53:00,29.3,8.5,29.49,West,268,0.0,0.0,41,0.00,,---,0.00,VWS V14.01,2013-01-17 08:53:00,
2013-01-17 03:58:00,29.3,8.5,29.52,West,268,0.0,0.0,41,0.00,,---,0.00,VWS V14.01,2013-01-17 08:58:00,
2013-01-17 04:03:00,29.1,8.4,29.52,West,268,0.0,0.0,41,0.00,,---,0.00,VWS V14.01,2013-01-17 09:03:00,
2013-01-17 04:08:00,29.1,8.4,29.52,West,268,0.0,0.0,41,0.00,,---,0.00,VWS V14.01,2013-01-17 09:08:00,
2013-01-17 04:13:00,29.1,8.4,29.52,West,268,0.0,0.0,41,0.00,,---,0.00,VWS V14.01,2013-01-17 09:13:00,
2013-01-17 04:18:00,28.9,8.2,29.52,West,268,0.0,0.0,41,0.00,,---,0.00,VWS V14.01,2013-01-17 09:18:00,
2013-01-17 04:23:00,29.1,8.4,29.52,West,268,0.0,0.0,41,0.00,,---,0.00,VWS V14.01,2013-01-17 09:23:00,
2013-01-17 04:28:00,29.1,8.4,29.52,West,268,0.0,0.0,41,0.00,,---,0.00,VWS V14.01,2013-01-17 09:28:00,
2013-01-17 04:33:00,28.9,8.2,29.52,West,268,0.0,0.0,41,0.00,,---,0.00,VWS V14.01,2013-01-17 09:33:00,
2013-01-17 04:38:00,28.9,8.2,29.52,West,268,0.0,0.0,41,0.00,,---,0.00,VWS V14.01,2013-01-17 09:38:00,
2013-01-17 04:43:00,28.9,8.2,29.52,West,268,0.0,0.0,41,0.00,,---,0.00,VWS V14.01,2013-01-17 09:43:00,
2013-01-17 04:48:00,28.8,8.0,29.52,West,268,0.0,0.0,41,0.00,,---,0.00,VWS V14.01,2013-01-17 09:48:00,
2013-01-17 04:53:00,28.8,8.0,29.52,West,268,0.0,0.0,41,0.00,,---,0.00,VWS V14.01,2013-01-17 09:53:00,
2013-01-17 04:58:00,28.8,8.0,29.52,West,268,0.0,0.0,41,0.00,,---,0.00,VWS V14.01,2013-01-17 09:58:00,
2013-01-17 05:03:00,28.8,8.0,29.52,West,268,0.0,0.0,41,0.00,,---,0.00,VWS V14.01,2013-01-17 10:03:00,
2013-01-17 05:08:00,28.8,8.0,29.52,West,268,0.0,0.0,41,0.00,,---,0.00,VWS V14.01,2013-01-17 10:08:00,
2013-01-17 05:13:00,28.8,8.0,29.52,West,268,0.0,0.0,41,0.00,,---,0.00,VWS V14.01,2013-01-17 10:13:00,
2013-01-17 05:18:00,28.6,7.9,29.52,West,268,0.0,0.0,41,0.00,,---,0.00,VWS V14.01,2013-01-17 10:18:00,
2013-01-17 05:23:00,28.6,7.9,29.52,West,268,0.0,0.0,41,0.00,,---,0.00,VWS V14.01,2013-01-17 10:23:00,
2013-01-17 05:28:00,28.6,7.9,29.52,West,268,0.0,0.0,41,0.00,,---,0.00,VWS V14.01,2013-01-17 10:28:00,
2013-01-17 05:33:00,28.6,7.9,29.52,West,268,0.0,0.0,41,0.00,,---,0.00,VWS V14.01,2013-01-17 10:33:00,
2013-01-17 05:38:00,28.6,7.9,29.52,West,268,0.0,0.0,41,0.00,,---,0.00,VWS V14.01,2013-01-17 10:38:00,
2013-01-17 05:43:00,28.6,7.9,29.55,West,268,0.0,0.0,41,0.00,,---,0.00,VWS V14.01,2013-01-17 10:43:00,
2013-01-17 05:48:00,28.4,8.2,29.55,West,268,0.0,0.0,42,0.00,,---,0.00,VWS V14.01,2013-01-17 10:48:00,
2013-01-17 05:53:00,28.4,8.2,29.55,West,268,0.0,0.0,42,0.00,,---,0.00,VWS V14.01,2013-01-17 10:53:00,
2013-01-17 05:58:00,28.4,8.2,29.55,West,268,0.0,0.0,42,0.00,,---,0.00,VWS V14.01,2013-01-17 10:58:00,
2013-01-17 06:03:00,28.4,8.2,29.55,West,268,0.0,0.0,42,0.00,,---,0.00,VWS V14.01,2013-01-17 11:03:00,
2013-01-17 06:08:00,28.4,8.2,29.55,West,268,0.0,0.0,42,0.00,,---,0.00,VWS V14.01,2013-01-17 11:08:00,
2013-01-17 06:13:00,28.4,8.2,29.55,West,268,0.0,0.0,42,0.00,,---,0.00,VWS V14.01,2013-01-17 11:13:00,
2013-01-17 06:18:00,28.4,8.2,29.55,West,268,0.0,0.0,42,0.00,,---,0.00,VWS V14.01,2013-01-17 11:18:00,
2013-01-17 06:23:00,28.4,8.2,29.55,West,268,0.0,0.0,42,0.00,,---,0.00,VWS V14.01,2013-01-17 11:23:00,
2013-01-17 06:28:00,28.2,8.1,29.55,West,268,0.0,0.0,42,0.00,,---,0.00,VWS V14.01,2013-01-17 11:28:00,
2013-01-17 06:33:00,28.0,7.9,29.55,West,268,0.0,0.0,42,0.00,,---,0.00,VWS V14.01,2013-01-17 11:33:00,
2013-01-17 06:38:00,28.2,8.1,29.55,West,268,0.0,0.0,42,0.00,,---,0.00,VWS V14.01,2013-01-17 11:38:00,
2013-01-17 06:43:00,28.0,7.9,29.55,West,269,0.0,0.0,42,0.00,,---,0.00,VWS V14.01,2013-01-17 11:43:00,
2013-01-17 06:48:00,28.0,7.9,29.55,West,268,0.0,0.0,42,0.00,,---,0.00,VWS V14.01,2013-01-17 11:48:00,
2013-01-17 06:53:00,28.0,7.9,29.55,West,268,0.0,0.0,42,0.00,,---,0.00,VWS V14.01,2013-01-17 11:53:00,
2013-01-17 06:58:00,27.9,7.8,29.52,West,268,0.0,0.0,42,0.00,,---,0.00,VWS V14.01,2013-01-17 11:58:00,
2013-01-17 07:03:00,27.9,7.8,29.52,West,268,0.0,0.0,42,0.00,,---,0.00,VWS V14.01,2013-01-17 12:03:00,
2013-01-17 07:08:00,27.9,7.8,29.52,West,268,0.0,0.0,42,0.00,,---,0.00,VWS V14.01,2013-01-17 12:08:00,
2013-01-17 07:13:00,27.9,7.8,29.55,West,268,0.0,0.0,42,0.00,,---,0.00,VWS V14.01,2013-01-17 12:13:00,
2013-01-17 07:18:00,27.9,7.8,29.55,West,268,0.0,0.0,42,0.00,,---,0.00,VWS V14.01,2013-01-17 12:18:00,
2013-01-17 07:23:00,27.9,7.8,29.55,West,268,0.0,0.0,42,0.00,,---,0.00,VWS V14.01,2013-01-17 12:23:00,
2013-01-17 07:28:00,27.9,7.8,29.55,West,268,0.0,0.0,42,0.00,,---,0.00,VWS V14.01,2013-01-17 12:28:00,
2013-01-17 07:33:00,27.9,7.8,29.55,West,268,0.0,0.0,42,0.00,,---,0.00,VWS V14.01,2013-01-17 12:33:00,
2013-01-17 07:38:00,27.9,7.8,29.55,West,268,0.0,0.0,42,0.00,,---,0.00,VWS V14.01,2013-01-17 12:38:00,
2013-01-17 07:43:00,27.9,7.8,29.55,West,268,0.0,0.0,42,0.00,,---,0.00,VWS V14.01,2013-01-17 12:43:00,
2013-01-17 07:48:00,27.9,7.8,29.55,West,268,0.0,0.0,42,0.00,,---,0.00,VWS V14.01,2013-01-17 12:48:00,
2013-01-17 07:53:00,28.0,7.9,29.55,West,268,0.0,0.0,42,0.00,,---,0.00,VWS V14.01,2013-01-17 12:53:00,
2013-01-17 07:58:00,28.0,7.9,29.58,West,268,0.0,0.0,42,0.00,,---,0.00,VWS V14.01,2013-01-17 12:58:00,
2013-01-17 08:03:00,28.0,7.9,29.58,West,268,0.0,0.0,42,0.00,,---,0.00,VWS V14.01,2013-01-17 13:03:00,
2013-01-17 08:08:00,28.0,7.9,29.58,West,268,0.0,0.0,42,0.00,,---,0.00,VWS V14.01,2013-01-17 13:08:00,
2013-01-17 08:13:00,28.0,7.9,29.58,West,268,0.0,0.0,42,0.00,,---,0.00,VWS V14.01,2013-01-17 13:13:00,
2013-01-17 08:18:00,28.0,7.9,29.58,West,268,0.0,0.0,42,0.00,,---,0.00,VWS V14.01,2013-01-17 13:18:00,
2013-01-17 08:23:00,28.2,8.1,29.58,West,268,0.0,0.0,42,0.00,,---,0.00,VWS V14.01,2013-01-17 13:23:00,
2013-01-17 08:28:00,28.4,8.2,29.58,West,268,0.0,0.0,42,0.00,,---,0.00,VWS V14.01,2013-01-17 13:28:00,
2013-01-17 08:33:00,28.2,8.1,29.58,West,268,0.0,0.0,42,0.00,,---,0.00,VWS V14.01,2013-01-17 13:33:00,
2013-01-17 08:38:00,28.0,7.9,29.58,West,268,0.0,0.0,42,0.00,,---,0.00,VWS V14.01,2013-01-17 13:38:00,
2013-01-17 08:43:00,28.2,8.1,29.58,West,268,0.0,0.0,42,0.00,,---,0.00,VWS V14.01,2013-01-17 13:43:00,
2013-01-17 08:48:00,28.2,8.1,29.58,West,268,0.0,0.0,42,0.00,,---,0.00,VWS V14.01,2013-01-17 13:48:00,
2013-01-17 08:53:00,28.2,8.1,29.58,West,268,0.0,0.0,42,0.00,,---,0.00,VWS V14.01,2013-01-17 13:53:00,
2013-01-17 08:58:00,28.2,8.1,29.58,West,268,0.0,0.0,42,0.00,,---,0.00,VWS V14.01,2013-01-17 13:58:00,
2013-01-17 09:03:00,28.4,8.2,29.58,West,268,0.0,0.0,42,0.00,,---,0.00,VWS V14.01,2013-01-17 14:03:00,
2013-01-17 09:08:00,28.4,8.2,29.58,West,268,0.0,0.0,42,0.00,,---,0.00,VWS V14.01,2013-01-17 14:08:00,
2013-01-17 09:13:00,28.6,8.4,29.61,West,268,0.0,0.0,42,0.00,,---,0.00,VWS V14.01,2013-01-17 14:13:00,
2013-01-17 09:18:00,28.6,8.4,29.61,West,268,0.0,0.0,42,0.00,,---,0.00,VWS V14.01,2013-01-17 14:18:00,
2013-01-17 09:23:00,28.6,8.4,29.61,West,268,0.0,0.0,42,0.00,,---,0.00,VWS V14.01,2013-01-17 14:23:00,
2013-01-17 09:28:00,28.6,8.4,29.58,West,268,0.0,0.0,42,0.00,,---,0.00,VWS V14.01,2013-01-17 14:28:00,
2013-01-17 09:33:00,28.6,8.4,29.58,West,268,0.0,0.0,42,0.00,,---,0.00,VWS V14.01,2013-01-17 14:33:00,
2013-01-17 09:38:00,28.9,8.7,29.58,West,268,0.0,0.0,42,0.00,,---,0.00,VWS V14.01,2013-01-17 14:38:00,
2013-01-17 09:43:00,28.8,8.6,29.61,West,268,0.0,0.0,42,0.00,,---,0.00,VWS V14.01,2013-01-17 14:43:00,
2013-01-17 09:48:00,28.8,8.6,29.61,West,268,0.0,0.0,42,0.00,,---,0.00,VWS V14.01,2013-01-17 14:48:00,
2013-01-17 09:52:00,28.9,8.7,29.61,West,268,0.0,0.0,42,0.00,,---,0.00,VWS V14.01,2013-01-17 14:52:00,
2013-01-17 09:57:00,28.9,8.7,29.61,West,268,0.0,0.0,42,0.00,,---,0.00,VWS V14.01,2013-01-17 14:57:00,
2013-01-17 10:02:00,28.6,8.4,29.61,West,268,0.0,0.0,42,0.00,,---,0.00,VWS V14.01,2013-01-17 15:02:00,
2013-01-17 10:07:00,28.6,8.4,29.61,West,268,0.0,0.0,42,0.00,,---,0.00,VWS V14.01,2013-01-17 15:07:00,
2013-01-17 10:12:00,28.4,8.2,29.61,West,268,0.0,0.0,42,0.00,,---,0.00,VWS V14.01,2013-01-17 15:12:00,
2013-01-17 10:17:00,28.4,8.2,29.61,West,268,0.0,0.0,42,0.00,,---,0.00,VWS V14.01,2013-01-17 15:17:00,
2013-01-17 10:22:00,28.4,8.2,29.61,West,268,0.0,0.0,42,0.00,,---,0.00,VWS V14.01,2013-01-17 15:22:00,
2013-01-17 10:27:00,28.4,8.2,29.61,West,268,0.0,0.0,42,0.00,,---,0.00,VWS V14.01,2013-01-17 15:27:00,
2013-01-17 10:32:00,28.6,8.4,29.61,West,268,0.0,0.0,42,0.00,,---,0.00,VWS V14.01,2013-01-17 15:32:00,
2013-01-17 10:37:00,28.6,8.4,29.61,West,268,0.0,0.0,42,0.00,,---,0.00,VWS V14.01,2013-01-17 15:37:00,
2013-01-17 10:42:00,28.4,8.2,29.61,West,268,0.0,0.0,42,0.00,,---,0.00,VWS V14.01,2013-01-17 15:42:00,
2013-01-17 10:47:00,28.4,8.2,29.61,West,268,0.0,0.0,42,0.00,,---,0.00,VWS V14.01,2013-01-17 15:47:00,
2013-01-17 10:52:00,28.6,8.4,29.61,West,268,0.0,0.0,42,0.00,,---,0.00,VWS V14.01,2013-01-17 15:52:00,
2013-01-17 10:57:00,28.9,8.7,29.61,West,268,0.0,0.0,42,0.00,,---,0.00,VWS V14.01,2013-01-17 15:57:00,
2013-01-17 11:02:00,29.3,9.1,29.61,West,268,0.0,0.0,42,0.00,,---,0.00,VWS V14.01,2013-01-17 16:02:00,
2013-01-17 11:07:00,29.5,9.2,29.61,West,268,0.0,0.0,42,0.00,,---,0.00,VWS V14.01,2013-01-17 16:07:00,
2013-01-17 11:12:00,29.7,9.4,29.58,West,268,0.0,0.0,42,0.00,,---,0.00,VWS V14.01,2013-01-17 16:12:00,
2013-01-17 11:17:00,29.8,9.6,29.58,West,268,0.0,0.0,42,0.00,,---,0.00,VWS V14.01,2013-01-17 16:17:00,
2013-01-17 11:22:00,29.7,9.4,29.58,West,268,0.0,0.0,42,0.00,,---,0.00,VWS V14.01,2013-01-17 16:22:00,
2013-01-17 11:27:00,29.5,9.2,29.58,West,268,0.0,0.0,42,0.00,,---,0.00,VWS V14.01,2013-01-17 16:27:00,
2013-01-17 11:32:00,29.8,9.6,29.58,West,268,0.0,0.0,42,0.00,,---,0.00,VWS V14.01,2013-01-17 16:32:00,
2013-01-17 11:37:00,30.2,9.9,29.58,West,268,0.0,0.0,42,0.00,,---,0.00,VWS V14.01,2013-01-17 16:37:00,
2013-01-17 11:42:00,30.2,9.9,29.58,West,268,0.0,0.0,42,0.00,,---,0.00,VWS V14.01,2013-01-17 16:42:00,
2013-01-17 11:47:00,29.7,9.4,29.58,West,268,0.0,0.0,42,0.00,,---,0.00,VWS V14.01,2013-01-17 16:47:00,
2013-01-17 11:52:00,29.5,9.2,29.58,West,268,0.0,0.0,42,0.00,,---,0.00,VWS V14.01,2013-01-17 16:52:00,
2013-01-17 11:57:00,29.7,9.4,29.58,West,268,0.0,0.0,42,0.00,,---,0.00,VWS V14.01,2013-01-17 16:57:00,
2013-01-17 12:02:00,29.8,9.6,29.58,West,268,0.0,0.0,42,0.00,,---,0.00,VWS V14.01,2013-01-17 17:02:00,
2013-01-17 12:07:00,29.8,9.6,29.58,West,268,0.0,0.0,42,0.00,,---,0.00,VWS V14.01,2013-01-17 17:07:00,
2013-01-17 12:12:00,30.0,9.7,29.58,West,268,0.0,0.0,42,0.00,,---,0.00,VWS V14.01,2013-01-17 17:12:00,
2013-01-17 12:17:00,29.8,9.0,29.58,West,268,0.0,0.0,41,0.00,,---,0.00,VWS V14.01,2013-01-17 17:17:00,
2013-01-17 12:22:00,29.8,9.0,29.58,West,268,0.0,0.0,41,0.00,,---,0.00,VWS V14.01,2013-01-17 17:22:00,
2013-01-17 12:28:00,30.0,9.2,29.58,West,268,0.0,0.0,41,0.00,,---,0.00,VWS V14.01,2013-01-17 17:28:00,
2013-01-17 12:33:00,29.8,9.0,29.58,West,268,0.0,0.0,41,0.00,,---,0.00,VWS V14.01,2013-01-17 17:33:00,
2013-01-17 12:38:00,29.7,8.9,29.58,West,268,0.0,0.0,41,0.00,,---,0.00,VWS V14.01,2013-01-17 17:38:00,
2013-01-17 12:43:00,29.8,9.0,29.58,West,268,0.0,0.0,41,0.00,,---,0.00,VWS V14.01,2013-01-17 17:43:00,
2013-01-17 12:48:00,30.0,9.2,29.58,West,268,0.0,0.0,41,0.00,,---,0.00,VWS V14.01,2013-01-17 17:48:00,
2013-01-17 12:53:00,29.8,9.0,29.58,West,268,0.0,0.0,41,0.00,,---,0.00,VWS V14.01,2013-01-17 17:53:00,
2013-01-17 12:58:00,30.4,9.5,29.55,West,268,0.0,0.0,41,0.00,,---,0.00,VWS V14.01,2013-01-17 17:58:00,
2013-01-17 13:03:00,31.1,10.2,29.55,West,268,0.0,0.0,41,0.00,,---,0.00,VWS V14.01,2013-01-17 18:03:00,
2013-01-17 13:07:00,31.5,10.5,29.55,West,268,0.0,0.0,41,0.00,,---,0.00,VWS V14.01,2013-01-17 18:07:00,
2013-01-17 13:12:00,31.5,10.5,29.58,West,268,0.0,0.0,41,0.00,,---,0.00,VWS V14.01,2013-01-17 18:12:00,
2013-01-17 13:17:00,30.9,10.0,29.58,West,268,0.0,0.0,41,0.00,,---,0.00,VWS V14.01,2013-01-17 18:17:00,
2013-01-17 13:22:00,30.6,9.7,29.58,West,268,0.0,0.0,41,0.00,,---,0.00,VWS V14.01,2013-01-17 18:22:00,
2013-01-17 13:27:00,30.4,9.5,29.55,West,268,0.0,0.0,41,0.00,,---,0.00,VWS V14.01,2013-01-17 18:27:00,
2013-01-17 13:32:00,30.4,9.5,29.55,West,268,0.0,0.0,41,0.00,,---,0.00,VWS V14.01,2013-01-17 18:32:00,
2013-01-17 13:38:00,31.1,10.2,29.55,West,268,0.0,0.0,41,0.00,,---,0.00,VWS V14.01,2013-01-17 18:38:00,
2013-01-17 13:43:00,31.8,10.8,29.55,West,268,0.0,0.0,41,0.00,,---,0.00,VWS V14.01,2013-01-17 18:43:00,
2013-01-17 13:48:00,31.5,10.5,29.55,West,268,0.0,0.0,41,0.00,,---,0.00,VWS V14.01,2013-01-17 18:48:00,
2013-01-17 13:53:00,31.5,10.5,29.55,West,268,0.0,0.0,41,0.00,,---,0.00,VWS V14.01,2013-01-17 18:53:00,
2013-01-17 13:58:00,31.1,10.2,29.52,West,268,0.0,0.0,41,0.00,,---,0.00,VWS V14.01,2013-01-17 18:58:00,
2013-01-17 14:03:00,31.1,10.2,29.52,West,268,0.0,0.0,41,0.00,,---,0.00,VWS V14.01,2013-01-17 19:03:00,
2013-01-17 14:08:00,31.5,10.5,29.52,West,268,0.0,0.0,41,0.00,,---,0.00,VWS V14.01,2013-01-17 19:08:00,
2013-01-17 14:13:00,31.1,10.2,29.52,West,268,0.0,0.0,41,0.00,,---,0.00,VWS V14.01,2013-01-17 19:13:00,
2013-01-17 14:18:00,31.5,10.5,29.52,West,268,0.0,0.0,41,0.00,,---,0.00,VWS V14.01,2013-01-17 19:18:00,
2013-01-17 14:22:00,31.8,10.8,29.52,West,268,0.0,0.0,41,0.00,,---,0.00,VWS V14.01,2013-01-17 19:22:00,
2013-01-17 14:27:00,31.8,10.8,29.52,West,268,0.0,0.0,41,0.00,,---,0.00,VWS V14.01,2013-01-17 19:27:00,
2013-01-17 14:32:00,31.5,10.5,29.52,West,268,0.0,0.0,41,0.00,,---,0.00,VWS V14.01,2013-01-17 19:32:00,
2013-01-17 14:37:00,31.5,10.5,29.52,West,268,0.0,0.0,41,0.00,,---,0.00,VWS V14.01,2013-01-17 19:37:00,
2013-01-17 14:42:00,31.5,10.5,29.52,West,268,0.0,0.0,41,0.00,,---,0.00,VWS V14.01,2013-01-17 19:42:00,
2013-01-17 14:47:00,31.1,10.2,29.52,West,268,0.0,0.0,41,0.00,,---,0.00,VWS V14.01,2013-01-17 19:47:00,
2013-01-17 14:52:00,30.6,9.7,29.52,West,268,0.0,0.0,41,0.00,,---,0.00,VWS V14.01,2013-01-17 19:52:00,
2013-01-17 14:57:00,30.4,9.5,29.52,West,268,0.0,0.0,41,0.00,,---,0.00,VWS V14.01,2013-01-17 19:57:00,
2013-01-17 15:03:00,30.4,9.5,29.52,West,268,0.0,0.0,41,0.00,,---,0.00,VWS V14.01,2013-01-17 20:03:00,
2013-01-17 15:08:00,30.2,9.4,29.52,West,268,0.0,0.0,41,0.00,,---,0.00,VWS V14.01,2013-01-17 20:08:00,
2013-01-17 15:13:00,30.2,9.4,29.55,West,268,0.0,0.0,41,0.00,,---,0.00,VWS V14.01,2013-01-17 20:13:00,
2013-01-17 15:18:00,30.2,9.4,29.55,West,268,0.0,0.0,41,0.00,,---,0.00,VWS V14.01,2013-01-17 20:18:00,
2013-01-17 15:23:00,30.0,9.2,29.55,West,268,0.0,0.0,41,0.00,,---,0.00,VWS V14.01,2013-01-17 20:23:00,
2013-01-17 15:28:00,29.8,9.0,29.55,West,268,0.0,0.0,41,0.00,,---,0.00,VWS V14.01,2013-01-17 20:28:00,
2013-01-17 15:33:00,29.8,9.0,29.55,West,268,0.0,0.0,41,0.00,,---,0.00,VWS V14.01,2013-01-17 20:33:00,
2013-01-17 15:38:00,30.0,9.2,29.55,West,268,0.0,0.0,41,0.00,,---,0.00,VWS V14.01,2013-01-17 20:38:00,
2013-01-17 15:43:00,29.8,9.0,29.55,West,268,0.0,0.0,41,0.00,,---,0.00,VWS V14.01,2013-01-17 20:43:00,
2013-01-17 15:48:00,29.8,9.0,29.55,West,268,0.0,0.0,41,0.00,,---,0.00,VWS V14.01,2013-01-17 20:48:00,
2013-01-17 15:53:00,29.8,9.0,29.55,West,268,0.0,0.0,41,0.00,,---,0.00,VWS V14.01,2013-01-17 20:53:00,
2013-01-17 15:58:00,29.8,9.0,29.55,West,268,0.0,0.0,41,0.00,,---,0.00,VWS V14.01,2013-01-17 20:58:00,
2013-01-17 16:03:00,29.8,9.6,29.55,West,268,0.0,0.0,42,0.00,,---,0.00,VWS V14.01,2013-01-17 21:03:00,
2013-01-17 16:08:00,29.8,9.6,29.55,West,268,0.0,0.0,42,0.00,,---,0.00,VWS V14.01,2013-01-17 21:08:00,
2013-01-17 16:13:00,29.8,9.6,29.55,West,268,0.0,0.0,42,0.00,,---,0.00,VWS V14.01,2013-01-17 21:13:00,
2013-01-17 16:18:00,29.7,9.4,29.55,West,268,0.0,0.0,42,0.00,,---,0.00,VWS V14.01,2013-01-17 21:18:00,
2013-01-17 16:23:00,29.5,9.2,29.55,West,268,0.0,0.0,42,0.00,,---,0.00,VWS V14.01,2013-01-17 21:23:00,
2013-01-17 16:28:00,29.5,9.2,29.55,West,268,0.0,0.0,42,0.00,,---,0.00,VWS V14.01,2013-01-17 21:28:00,
2013-01-17 16:33:00,29.5,9.2,29.55,West,268,0.0,0.0,42,0.00,,---,0.00,VWS V14.01,2013-01-17 21:33:00,
2013-01-17 16:38:00,29.3,9.1,29.55,West,268,0.0,0.0,42,0.00,,---,0.00,VWS V14.01,2013-01-17 21:38:00,
2013-01-17 16:43:00,29.3,9.1,29.55,West,268,0.0,0.0,42,0.00,,---,0.00,VWS V14.01,2013-01-17 21:43:00,
2013-01-17 16:48:00,29.3,9.1,29.55,West,268,0.0,0.0,42,0.00,,---,0.00,VWS V14.01,2013-01-17 21:48:00,
2013-01-17 16:53:00,29.1,8.9,29.55,West,268,0.0,0.0,42,0.00,,---,0.00,VWS V14.01,2013-01-17 21:53:00,
2013-01-17 16:58:00,29.1,8.9,29.55,West,268,0.0,0.0,42,0.00,,---,0.00,VWS V14.01,2013-01-17 21:58:00,
2013-01-17 17:03:00,29.1,8.9,29.55,West,268,0.0,0.0,42,0.00,,---,0.00,VWS V14.01,2013-01-17 22:03:00,
2013-01-17 17:08:00,29.3,9.1,29.55,West,268,0.0,0.0,42,0.00,,---,0.00,VWS V14.01,2013-01-17 22:08:00,
2013-01-17 17:13:00,29.3,9.1,29.58,West,268,0.0,0.0,42,0.00,,---,0.00,VWS V14.01,2013-01-17 22:13:00,
2013-01-17 17:18:00,29.1,8.9,29.58,West,268,0.0,0.0,42,0.00,,---,0.00,VWS V14.01,2013-01-17 22:18:00,
2013-01-17 17:23:00,29.1,8.9,29.58,West,268,0.0,0.0,42,0.00,,---,0.00,VWS V14.01,2013-01-17 22:23:00,
2013-01-17 17:28:00,29.1,8.9,29.58,West,268,0.0,0.0,42,0.00,,---,0.00,VWS V14.01,2013-01-17 22:28:00,
2013-01-17 17:33:00,29.1,8.9,29.58,West,266,0.0,0.0,42,0.00,,---,0.00,VWS V14.01,2013-01-17 22:33:00,
2013-01-17 17:37:00,29.1,8.9,29.58,West,268,0.0,0.0,42,0.00,,---,0.00,VWS V14.01,2013-01-17 22:37:00,
2013-01-17 17:43:00,29.1,8.9,29.58,West,268,0.0,0.0,42,0.00,,---,0.00,VWS V14.01,2013-01-17 22:43:00,
2013-01-17 17:48:00,28.9,8.7,29.58,West,268,0.0,0.0,42,0.00,,---,0.00,VWS V14.01,2013-01-17 22:48:00,
2013-01-17 17:53:00,28.9,8.7,29.58,West,268,0.0,0.0,42,0.00,,---,0.00,VWS V14.01,2013-01-17 22:53:00,
2013-01-17 17:57:00,28.8,8.6,29.58,West,268,0.0,0.0,42,0.00,,---,0.00,VWS V14.01,2013-01-17 22:57:00,
2013-01-17 18:02:00,28.8,8.6,29.58,West,268,0.0,0.0,42,0.00,,---,0.00,VWS V14.01,2013-01-17 23:02:00,
2013-01-17 18:07:00,28.6,8.4,29.58,West,268,0.0,0.0,42,0.00,,---,0.00,VWS V14.01,2013-01-17 23:07:00,
2013-01-17 18:12:00,28.6,8.4,29.58,West,268,0.0,0.0,42,0.00,,---,0.00,VWS V14.01,2013-01-17 23:12:00,
2013-01-17 18:17:00,28.6,8.4,29.58,West,268,0.0,0.0,42,0.00,,---,0.00,VWS V14.01,2013-01-17 23:17:00,
2013-01-17 18:22:00,28.6,8.4,29.58,West,268,0.0,0.0,42,0.00,,---,0.00,VWS V14.01,2013-01-17 23:22:00,
2013-01-17 18:27:00,28.4,8.2,29.58,West,268,0.0,0.0,42,0.00,,---,0.00,VWS V14.01,2013-01-17 23:27:00,
2013-01-17 18:32:00,28.4,8.2,29.58,West,268,0.0,0.0,42,0.00,,---,0.00,VWS V14.01,2013-01-17 23:32:00,
2013-01-17 18:37:00,28.4,8.2,29.58,West,268,0.0,0.0,42,0.00,,---,0.00,VWS V14.01,2013-01-17 23:37:00,
2013-01-17 18:42:00,28.2,8.1,29.58,West,268,0.0,0.0,42,0.00,,---,0.00,VWS V14.01,2013-01-17 23:42:00,
2013-01-17 18:47:00,28.2,8.1,29.58,West,268,0.0,0.0,42,0.00,,---,0.00,VWS V14.01,2013-01-17 23:47:00,
2013-01-17 18:52:00,28.2,8.1,29.58,West,268,0.0,0.0,42,0.00,,---,0.00,VWS V14.01,2013-01-17 23:52:00,
2013-01-17 18:57:00,28.2,8.1,29.55,West,268,0.0,0.0,42,0.00,,---,0.00,VWS V14.01,2013-01-17 23:57:00,
2013-01-17 19:02:00,28.0,7.9,29.55,West,268,0.0,0.0,42,0.00,,---,0.00,VWS V14.01,2013-01-18 00:02:00,
2013-01-17 19:07:00,28.0,7.9,29.55,West,268,0.0,0.0,42,0.00,,---,0.00,VWS V14.01,2013-01-18 00:07:00,
2013-01-17 19:12:00,28.0,7.9,29.58,West,268,0.0,0.0,42,0.00,,---,0.00,VWS V14.01,2013-01-18 00:12:00,
2013-01-17 19:17:00,28.0,7.9,29.58,West,268,0.0,0.0,42,0.00,,---,0.00,VWS V14.01,2013-01-18 00:17:00,
2013-01-17 19:22:00,28.0,7.9,29.58,West,268,0.0,0.0,42,0.00,,---,0.00,VWS V14.01,2013-01-18 00:22:00,
2013-01-17 19:27:00,28.0,7.9,29.58,West,268,0.0,0.0,42,0.00,,---,0.00,VWS V14.01,2013-01-18 00:27:00,
2013-01-17 19:32:00,27.9,7.8,29.58,West,268,0.0,0.0,42,0.00,,---,0.00,VWS V14.01,2013-01-18 00:32:00,
2013-01-17 19:37:00,27.9,7.8,29.58,West,268,0.0,0.0,42,0.00,,---,0.00,VWS V14.01,2013-01-18 00:37:00,
2013-01-17 19:42:00,28.0,7.9,29.58,West,268,0.0,0.0,42,0.00,,---,0.00,VWS V14.01,2013-01-18 00:42:00,
2013-01-17 19:47:00,28.0,7.9,29.58,West,268,0.0,0.0,42,0.00,,---,0.00,VWS V14.01,2013-01-18 00:47:00,
2013-01-17 19:52:00,27.9,7.8,29.58,West,268,0.0,0.0,42,0.00,,---,0.00,VWS V14.01,2013-01-18 00:52:00,
2013-01-17 19:57:00,27.9,7.8,29.58,West,268,0.0,0.0,42,0.00,,---,0.00,VWS V14.01,2013-01-18 00:57:00,
2013-01-17 20:02:00,28.0,7.9,29.58,West,268,0.0,0.0,42,0.00,,---,0.00,VWS V14.01,2013-01-18 01:02:00,
2013-01-17 20:07:00,27.9,7.8,29.58,West,268,0.0,0.0,42,0.00,,---,0.00,VWS V14.01,2013-01-18 01:07:00,
2013-01-17 20:12:00,27.9,7.8,29.58,West,268,0.0,0.0,42,0.00,,---,0.00,VWS V14.01,2013-01-18 01:12:00,
2013-01-17 20:17:00,27.9,7.8,29.58,West,268,0.0,0.0,42,0.00,,---,0.00,VWS V14.01,2013-01-18 01:17:00,
2013-01-17 20:22:00,27.9,7.8,29.58,West,268,0.0,0.0,42,0.00,,---,0.00,VWS V14.01,2013-01-18 01:22:00,
2013-01-17 20:27:00,27.9,7.8,29.58,West,268,0.0,0.0,42,0.00,,---,0.00,VWS V14.01,2013-01-18 01:27:00,
2013-01-17 20:32:00,28.0,7.9,29.58,West,268,0.0,0.0,42,0.00,,---,0.00,VWS V14.01,2013-01-18 01:32:00,
2013-01-17 20:37:00,28.2,8.1,29.58,West,268,0.0,0.0,42,0.00,,---,0.00,VWS V14.01,2013-01-18 01:37:00,
2013-01-17 20:42:00,28.2,8.1,29.58,West,268,0.0,0.0,42,0.00,,---,0.00,VWS V14.01,2013-01-18 01:42:00,
2013-01-17 20:47:00,28.2,8.1,29.58,West,268,0.0,0.0,42,0.00,,---,0.00,VWS V14.01,2013-01-18 01:47:00,
2013-01-17 20:52:00,28.2,8.1,29.58,West,268,0.0,0.0,42,0.00,,---,0.00,VWS V14.01,2013-01-18 01:52:00,
2013-01-17 20:57:00,28.2,8.1,29.58,West,268,0.0,0.0,42,0.00,,---,0.00,VWS V14.01,2013-01-18 01:57:00,
2013-01-17 21:02:00,28.2,8.1,29.58,West,268,0.0,0.0,42,0.00,,---,0.00,VWS V14.01,2013-01-18 02:02:00,
2013-01-17 21:07:00,28.2,8.1,29.58,West,268,0.0,0.0,42,0.00,,---,0.00,VWS V14.01,2013-01-18 02:07:00,
2013-01-17 21:12:00,28.2,8.1,29.58,West,268,0.0,0.0,42,0.00,,---,0.00,VWS V14.01,2013-01-18 02:12:00,
2013-01-17 21:17:00,28.2,8.1,29.58,West,268,0.0,0.0,42,0.00,,---,0.00,VWS V14.01,2013-01-18 02:17:00,
2013-01-17 21:22:00,28.2,8.1,29.58,West,268,0.0,0.0,42,0.00,,---,0.00,VWS V14.01,2013-01-18 02:22:00,
2013-01-17 21:27:00,28.0,7.9,29.58,West,268,0.0,0.0,42,0.00,,---,0.00,VWS V14.01,2013-01-18 02:27:00,
2013-01-17 21:32:00,27.9,7.8,29.58,West,268,0.0,0.0,42,0.00,,---,0.00,VWS V14.01,2013-01-18 02:32:00,
2013-01-17 21:37:00,27.9,7.8,29.58,West,268,0.0,0.0,42,0.00,,---,0.00,VWS V14.01,2013-01-18 02:37:00,
2013-01-17 21:42:00,27.7,7.6,29.58,West,268,0.0,0.0,42,0.00,,---,0.00,VWS V14.01,2013-01-18 02:42:00,
2013-01-17 21:47:00,27.3,7.3,29.58,West,268,0.0,0.0,42,0.00,,---,0.00,VWS V14.01,2013-01-18 02:47:00,
2013-01-17 21:52:00,27.1,7.1,29.58,West,268,0.0,0.0,42,0.00,,---,0.00,VWS V14.01,2013-01-18 02:52:00,
2013-01-17 21:57:00,27.1,7.1,29.58,West,268,0.0,0.0,42,0.00,,---,0.00,VWS V14.01,2013-01-18 02:57:00,
2013-01-17 22:02:00,27.0,6.9,29.58,West,268,0.0,0.0,42,0.00,,---,0.00,VWS V14.01,2013-01-18 03:02:00,
2013-01-17 22:07:00,27.0,6.9,29.58,West,268,0.0,0.0,42,0.00,,---,0.00,VWS V14.01,2013-01-18 03:07:00,
2013-01-17 22:12:00,27.0,6.9,29.58,West,268,0.0,0.0,42,0.00,,---,0.00,VWS V14.01,2013-01-18 03:12:00,
2013-01-17 22:17:00,27.0,6.9,29.58,West,268,0.0,0.0,42,0.00,,---,0.00,VWS V14.01,2013-01-18 03:17:00,
2013-01-17 22:22:00,26.8,6.8,29.58,West,268,0.0,0.0,42,0.00,,---,0.00,VWS V14.01,2013-01-18 03:22:00,
2013-01-17 22:27:00,26.8,6.8,29.58,West,268,0.0,0.0,42,0.00,,---,0.00,VWS V14.01,2013-01-18 03:27:00,
2013-01-17 22:32:00,26.6,7.1,29.58,West,268,0.0,0.0,43,0.00,,---,0.00,VWS V14.01,2013-01-18 03:32:00,
2013-01-17 22:37:00,26.6,7.1,29.58,West,268,0.0,0.0,43,0.00,,---,0.00,VWS V14.01,2013-01-18 03:37:00,
2013-01-17 22:42:00,26.6,7.1,29.58,West,268,0.0,0.0,43,0.00,,---,0.00,VWS V14.01,2013-01-18 03:42:00,
2013-01-17 22:47:00,26.4,7.0,29.55,West,268,0.0,0.0,43,0.00,,---,0.00,VWS V14.01,2013-01-18 03:47:00,
2013-01-17 22:52:00,26.6,7.1,29.55,West,268,0.0,0.0,43,0.00,,---,0.00,VWS V14.01,2013-01-18 03:52:00,
2013-01-17 22:57:00,26.6,7.1,29.55,West,268,0.0,0.0,43,0.00,,---,0.00,VWS V14.01,2013-01-18 03:57:00,
2013-01-17 23:02:00,26.6,7.1,29.55,West,268,0.0,0.0,43,0.00,,---,0.00,VWS V14.01,2013-01-18 04:02:00,
2013-01-17 23:07:00,26.4,7.0,29.55,West,268,0.0,0.0,43,0.00,,---,0.00,VWS V14.01,2013-01-18 04:07:00,
2013-01-17 23:12:00,26.4,7.0,29.58,West,268,0.0,0.0,43,0.00,,---,0.00,VWS V14.01,2013-01-18 04:12:00,
2013-01-17 23:17:00,26.6,7.1,29.58,West,268,0.0,0.0,43,0.00,,---,0.00,VWS V14.01,2013-01-18 04:17:00,
2013-01-17 23:22:00,26.6,7.1,29.58,West,268,0.0,0.0,43,0.00,,---,0.00,VWS V14.01,2013-01-18 04:22:00,
2013-01-17 23:27:00,26.8,6.8,29.58,West,268,0.0,0.0,42,0.00,,---,0.00,VWS V14.01,2013-01-18 04:27:00,
2013-01-17 23:32:00,26.4,7.0,29.58,West,268,0.0,0.0,43,0.00,,---,0.00,VWS V14.01,2013-01-18 04:32:00,
2013-01-17 23:37:00,26.4,7.0,29.58,West,268,0.0,0.0,43,0.00,,---,0.00,VWS V14.01,2013-01-18 04:37:00,
2013-01-17 23:42:00,26.4,7.0,29.58,West,268,0.0,0.0,43,0.00,,---,0.00,VWS V14.01,2013-01-18 04:42:00,
2013-01-17 23:47:00,26.4,7.0,29.58,West,268,0.0,0.0,43,0.00,,---,0.00,VWS V14.01,2013-01-18 04:47:00,
2013-01-17 23:52:00,26.6,7.1,29.58,West,268,0.0,0.0,43,0.00,,---,0.00,VWS V14.01,2013-01-18 04:52:00,
2013-01-17 23:57:00,26.8,6.8,29.58,West,268,0.0,0.0,42,0.00,,---,0.00,VWS V14.01,2013-01-18 04:57:00,